M0PSX-13 Weather Reports


Display with metric or nautical units.
time (UTC)temp
F
wind
direction
speed
MPH
gust
MPH
rain 1hr
in
rain 24hr
in
rain mn
in
humidity
%
barometer
mb
20260510101015 54 340 2.0 7.0 0.00 0.00 0.00 73 1016.3
20260510100005 54 338 2.0 8.0 0.00 0.00 0.00 73 1016.3
20260510095005 54 338 2.0 9.0 0.00 0.00 0.00 73 1016.3
20260510093005 54 339 3.0 8.0 0.00 0.00 0.00 71 1016.4
20260510091007 54 337 3.0 7.0 0.00 0.00 0.00 73 1016.6
20260510090008 54 339 4.0 6.0 0.00 0.00 0.00 74 1016.4
20260510084020 54 337 4.0 11.0 0.00 0.00 0.00 74 1016.5
20260510083004 53 338 3.0 8.0 0.00 0.00 0.00 76 1016.7
20260510081016 53 337 2.0 8.0 0.00 0.00 0.00 79 1016.7
20260510080016 52 338 5.0 8.0 0.00 0.00 0.00 79 1016.7
20260510075005 52 342 2.0 8.0 0.00 0.00 0.00 80 1016.8
20260510074004 52 340 2.0 6.0 0.00 0.00 0.00 80 1016.9
20260510073005 52 337 3.0 6.0 0.00 0.00 0.00 81 1016.9
20260510072005 51 338 2.0 9.0 0.00 0.00 0.00 81 1016.7
20260510071005 51 337 2.0 4.0 0.00 0.00 0.00 82 1016.8
20260510070007 51 337 3.0 6.0 0.00 0.00 0.00 83 1017.1
20260510065005 51 340 3.0 6.0 0.00 0.00 0.00 83 1016.7
20260510064005 51 338 2.0 8.0 0.00 0.00 0.00 84 1016.8
20260510063008 50 339 3.0 6.0 0.00 0.00 0.00 85 1016.7
20260510061017 50 350 2.0 4.0 0.00 0.00 0.00 88 1016.9
20260510060006 50 343 2.0 4.0 0.00 0.00 0.00 88 1016.7
20260510054005 49 338 3.0 6.0 0.00 0.00 0.00 89 1016.7
20260510053005 49 337 3.0 6.0 0.00 0.00 0.00 90 1016.4
20260510052020 48 338 2.0 4.0 0.00 0.00 0.00 91 1016.8
20260510051031 48 337 2.0 4.0 0.00 0.00 0.00 91 1016.6
20260510050005 48 343 2.0 4.0 0.00 0.00 0.00 91 1016.5
20260510045005 48 341 2.0 4.0 0.00 0.00 0.00 91 1016.6
20260510044007 48 349 2.0 4.0 0.00 0.00 0.00 92 1016.8
20260510042005 48 340 0.0 4.0 0.00 0.00 0.00 92 1016.8
20260510040005 48 352 0.0 4.0 0.00 0.00 0.00 92 1016.6
20260510035017 48 350 1.0 4.0 0.00 0.00 0.00 92 1016.8
20260510034008 48 351 0.0 2.0 0.00 0.00 0.00 92 1016.9
20260510033008 48 349 2.0 4.0 0.00 0.00 0.00 92 1016.8
20260510032016 48 347 1.0 4.0 0.00 0.00 0.00 92 1016.9
20260510031006 48 349 1.0 2.0 0.00 0.00 0.00 92 1016.9
20260510030004 47 351 1.0 4.0 0.00 0.00 0.00 91 1016.9
20260510023004 47 1 0.0 2.0 0.00 0.00 0.00 91 1016.9
20260510022005 47 1 0.0 2.0 0.00 0.00 0.00 91 1017.0
20260510021004 47 1 0.0 2.0 0.00 0.00 0.00 90 1017.1
20260510020005 47 357 0.0 2.0 0.00 0.00 0.00 90 1017.0
20260510015005 47 1 1.0 2.0 0.00 0.00 0.00 90 1017.0
20260510014004 47 353 1.0 4.0 0.00 0.00 0.00 90 1016.9
20260510013004 48 350 2.0 4.0 0.00 0.00 0.00 89 1017.0
20260510012004 48 348 2.0 4.0 0.00 0.00 0.00 89 1016.7
20260510011005 48 358 1.0 4.0 0.00 0.00 0.00 88 1017.3
20260510010005 48 355 1.0 4.0 0.00 0.00 0.00 88 1017.0
20260510005005 49 355 1.0 2.0 0.00 0.00 0.00 87 1016.9
20260510004005 49 358 0.0 2.0 0.00 0.00 0.00 86 1017.1
20260510003005 49 358 0.0 2.0 0.00 0.00 0.00 86 1017.0
20260510002005 49 358 1.0 2.0 0.00 0.00 0.00 86 1017.0
20260510001005 50 1 1.0 2.0 0.00 0.00 0.00 85 1017.2
20260509235005 50 353 2.0 2.0 0.00 0.00 0.00 84 1017.1
20260509234004 50 352 1.0 2.0 0.00 0.00 0.00 83 1017.0
20260509233005 51 354 1.0 4.0 0.00 0.00 0.00 82 1017.4
20260509231005 51 340 1.0 2.0 0.00 0.00 0.00 81 1017.4
20260509230010 51 338 1.0 2.0 0.00 0.00 0.00 81 1017.1
20260509225005 51 338 1.0 2.0 0.00 0.00 0.00 81 1017.0
20260509224005 51 338 1.0 2.0 0.00 0.00 0.00 80 1017.3
20260509223005 52 338 1.0 2.0 0.00 0.00 0.00 79 1017.3
20260509222007 52 338 1.0 2.0 0.00 0.00 0.00 79 1017.5
20260509221005 52 338 1.0 4.0 0.00 0.00 0.00 79 1017.4
20260509220005 52 338 1.0 4.0 0.00 0.00 0.00 78 1017.1
20260509214005 53 338 2.0 4.0 0.00 0.00 0.00 76 1017.2
20260509213005 53 337 1.0 2.0 0.00 0.00 0.00 74 1017.0
20260509211005 53 338 1.0 2.0 0.00 0.00 0.00 73 1016.8
20260509210005 54 337 2.0 4.0 0.00 0.00 0.00 73 1016.8
20260509205005 54 337 2.0 2.0 0.00 0.00 0.00 75 1016.9
20260509204005 54 337 2.0 4.0 0.00 0.00 0.00 75 1016.8
20260509203005 54 337 2.0 2.0 0.00 0.00 0.00 73 1016.8
20260509200005 55 337 2.0 4.0 0.00 0.00 0.00 70 1016.8
20260509195005 56 337 1.0 6.0 0.00 0.00 0.00 69 1016.6
20260509193004 56 338 2.0 7.0 0.00 0.00 0.00 66 1016.4
20260509192005 56 337 2.0 6.0 0.00 0.00 0.00 66 1016.4
20260509191004 57 338 2.0 4.0 0.00 0.00 0.00 65 1016.3
20260509190005 57 337 2.0 6.0 0.00 0.00 0.00 65 1016.3
20260509185005 58 337 1.0 7.0 0.00 0.00 0.00 63 1016.4
20260509184005 58 337 2.0 6.0 0.00 0.00 0.00 60 1016.3
20260509183004 58 337 2.0 7.0 0.00 0.00 0.00 58 1016.3
20260509182004 59 337 2.0 8.0 0.00 0.00 0.00 58 1016.1
20260509181005 59 338 3.0 7.0 0.00 0.00 0.00 56 1016.2
20260509180005 59 337 2.0 7.0 0.00 0.00 0.00 53 1016.0
20260509175004 59 338 2.0 7.0 0.00 0.00 0.00 55 1015.9
20260509174005 59 338 4.0 9.0 0.00 0.00 0.00 51 1016.1
20260509173004 60 338 4.0 8.0 0.00 0.00 0.00 50 1016.1
20260509172004 60 337 4.0 7.0 0.00 0.00 0.00 49 1016.2
20260509171005 60 337 2.0 7.0 0.00 0.00 0.00 52 1016.2
20260509170004 60 337 2.0 8.0 0.00 0.00 0.00 52 1016.0
20260509165004 60 337 4.0 8.0 0.00 0.00 0.00 51 1016.2
20260509164004 61 337 3.0 7.0 0.00 0.00 0.00 48 1016.4
20260509163005 61 339 3.0 8.0 0.00 0.00 0.00 51 1016.4
20260509162005 61 338 2.0 7.0 0.00 0.00 0.00 51 1016.4
20260509161005 62 337 3.0 8.0 0.00 0.00 0.00 50 1016.8
20260509160005 61 337 4.0 8.0 0.00 0.00 0.00 51 1016.8
20260509155005 62 337 3.0 7.0 0.00 0.00 0.00 51 1016.5
20260509154005 62 337 4.0 7.0 0.00 0.00 0.00 52 1016.7
20260509153004 62 337 4.0 7.0 0.00 0.00 0.00 51 1016.6
20260509152004 62 339 3.0 8.0 0.00 0.00 0.00 51 1016.6
20260509151005 63 337 4.0 8.0 0.00 0.00 0.00 50 1016.6
20260509150005 63 338 2.0 11.0 0.00 0.00 0.00 51 1016.3
20260509145005 63 338 3.0 11.0 0.00 0.00 0.00 51 1016.3
20260509144005 62 338 3.0 8.0 0.00 0.00 0.00 51 1016.1
20260509143005 63 337 4.0 7.0 0.00 0.00 0.00 51 1016.3
20260509142005 63 338 3.0 6.0 0.00 0.00 0.00 52 1016.3
20260509135004 63 340 3.0 6.0 0.00 0.00 0.00 53 1016.4
20260509134005 63 337 3.0 7.0 0.00 0.00 0.00 54 1015.9
20260509132004 64 324 2.0 7.0 0.00 0.00 0.00 55 1016.6
20260509130004 64 335 3.0 6.0 0.00 0.00 0.00 56 1016.6
20260509125007 63 335 2.0 7.0 0.00 0.00 0.00 56 1016.6
20260509124004 63 337 2.0 8.0 0.00 0.00 0.00 56 1016.7
20260509123004 64 337 2.0 2.0 0.00 0.00 0.00 55 1017.1
20260509122005 64 337 2.0 8.0 0.00 0.00 0.00 55 1017.0
20260509121005 63 314 3.0 6.0 0.00 0.00 0.00 56 1017.0
20260509120005 64 314 4.0 6.0 0.00 0.00 0.00 56 1017.0
20260509115004 64 314 2.0 7.0 0.00 0.00 0.00 55 1016.9
20260509114004 64 314 2.0 6.0 0.00 0.00 0.00 54 1017.0
20260509113004 64 314 3.0 6.0 0.00 0.00 0.00 56 1017.1
20260509112004 64 314 2.0 7.0 0.00 0.00 0.00 56 1017.1
20260509111004 64 314 2.0 6.0 0.00 0.00 0.00 57 1017.2
20260509110005 64 314 2.0 4.0 0.00 0.00 0.00 56 1017.3
20260509105004 63 314 4.0 7.0 0.00 0.00 0.00 57 1017.6
20260509104004 64 314 2.0 6.0 0.00 0.00 0.00 56 1017.6
20260509103004 63 314 2.0 6.0 0.00 0.00 0.00 58 1017.5